Location: Kitt Peak
(31.9633°N, 111.6000°W)
Time: 21:26:45
(UTC-07:00)

Amateur Radio Satellites - All Passes

Search period start: 22 October 2017 20:56
Search period end: 23 October 2017 20:56
Location: Kitt Peak, 31.9633°N, 111.6000°W

Satellite Date Start Highest point End Downlink Frequencies (MHz)
Time Altitude Azimuth
AAUSAT CUBESAT 2 22 Oct 21:00:38 21:01:25 10° 267° (W) 21:02:13 437.432
O/OREOS (USA 219) 22 Oct 21:08:09 21:10:13 13° 300° (WNW) 21:12:17 437.305
Oscar 11 22 Oct 21:08:38 21:12:14 25° 263° (W) 21:15:50 .
BEESAT 2 22 Oct 21:09:39 21:13:34 49° 60° (ENE) 21:17:24 435.950
BEESAT 3 22 Oct 21:20:16 21:23:37 27° 248° (WSW) 21:26:54 437.485
FO-29 22 Oct 21:29:55 21:37:10 81° 285° (WNW) 21:44:57 435.910
YUBILEINY 22 Oct 21:50:11 21:57:17 28° 275° (W) 22:04:24 435.215
DELFI C3 22 Oct 21:59:34 22:02:56 28° 262° (W) 22:06:20 145.870
EO-88 22 Oct 22:01:34 22:05:08 52° 260° (W) 22:08:42 145.990 - 145.960
ESTCUBE 1 22 Oct 22:01:55 22:03:16 11° 66° (ENE) 22:04:36 437.505/2401.250
UNISAT 6 22 Oct 22:15:22 22:19:57 86° 102° (ESE) 22:24:22 437.425
Max Valier Satellite 22 Oct 22:18:39 22:21:33 21° 264° (W) 22:24:29 145.860
AO-85 22 Oct 22:28:26 22:32:46 35° 247° (WSW) 22:37:20 145.980
PRISM 22 Oct 22:28:34 22:32:33 44° 100° (E) 22:36:31 437.425
TIGRISAT 22 Oct 22:29:24 22:33:57 72° 283° (WNW) 22:38:21 435.000
LO-87 22 Oct 22:41:57 22:45:23 47° 76° (ENE) 22:48:52 145.935 - 145.965
RS-15 22 Oct 22:49:39 23:00:40 42° 106° (ESE) 23:11:46 29.354- 29.394
VELOX 1 22 Oct 23:15:11 23:16:38 11° 66° (ENE) 23:18:04 145.980
FO-29 22 Oct 23:18:18 23:21:15 13° 298° (WNW) 23:24:18 435.910
ESTCUBE 1 22 Oct 23:35:09 23:39:32 53° 260° (W) 23:43:56 437.505/2401.250
SPROUT 22 Oct 23:41:20 23:45:14 35° 73° (ENE) 23:49:09 437.525
AIST 2D 22 Oct 23:42:05 23:45:33 80° 282° (WNW) 23:49:00 435.315
PRISM 23 Oct 00:06:00 00:07:21 11° 293° (WNW) 00:08:43 437.425
DX 1 23 Oct 00:12:05 00:13:34 12° 66° (ENE) 00:15:03 434.975-435.025
EO-79 23 Oct 00:12:24 00:16:37 66° 101° (E) 00:20:49 145.935-145.965
50 SAT 23 Oct 00:17:17 00:18:23 11° 70° (ENE) 00:19:30 437.505
POLYITAN 1 23 Oct 00:17:58 00:22:13 78° 102° (ESE) 00:26:26 437.675
NO-84 23 Oct 00:22:24 00:25:11 17° 121° (ESE) 00:28:01 435.350 FM
UKube-1 23 Oct 00:30:02 00:31:24 11° 66° (ENE) 00:32:44 .
QB50P2 23 Oct 00:38:36 00:42:43 50° 286° (WNW) 00:46:48 145.880/145.840
NANOSAT C BR1 23 Oct 00:38:40 00:42:52 65° 284° (WNW) 00:47:01 145.865
BUGSAT 1 23 Oct 00:44:15 00:47:44 25° 97° (E) 00:51:09 437.445
DUCHIFAT 1 23 Oct 00:47:45 00:51:54 57° 284° (WNW) 00:56:00 145.980
VELOX 1 23 Oct 00:48:20 00:52:34 50° 260° (W) 00:56:50 145.980
RS-15 23 Oct 01:00:57 01:12:48 53° 305° (NW) 01:24:46 29.354- 29.394
M-CUBED/EXP-1 PRIME 23 Oct 01:18:29 01:20:42 15° 101° (ESE) 01:23:01 437.505
SPROUT 23 Oct 01:18:52 01:21:11 14° 266° (W) 01:23:31 437.525
Gurwin Techsat 1B 23 Oct 01:19:52 01:23:55 22° 96° (E) 01:27:58 435.225
DX 1 23 Oct 01:45:05 01:49:15 48° 260° (W) 01:53:27 434.975-435.025
50 SAT 23 Oct 01:47:42 01:50:23 24° 262° (W) 01:53:05 437.505
MOZHAYETS 4 23 Oct 01:48:58 01:50:53 12° 67° (ENE) 01:52:50
NO-84 23 Oct 01:58:11 02:02:17 46° 314° (NW) 02:06:26 435.350 FM
UKube-1 23 Oct 02:02:47 02:06:55 48° 260° (W) 02:11:05 .
Oscar 19 23 Oct 02:03:08 02:08:16 87° 284° (WNW) 02:13:23 437.125/150
BUGSAT 1 23 Oct 02:19:50 02:22:52 20° 290° (WNW) 02:25:53 437.445
ITUPSAT 1 23 Oct 02:43:54 02:48:30 48° 73° (ENE) 02:53:07 437.325
ITAMSAT 1 23 Oct 02:46:08 02:47:00 10° 92° (E) 02:47:51 435.822/435.867
M-CUBED/EXP-1 PRIME 23 Oct 02:51:47 02:55:04 29° 290° (WNW) 02:58:32 437.505
BEESAT 23 Oct 02:57:09 03:01:53 70° 76° (ENE) 03:06:40 436.000
AO-7 23 Oct 02:57:54 03:04:53 29° 98° (E) 03:11:49 .
Gurwin Techsat 1B 23 Oct 02:59:03 03:03:53 36° 289° (WNW) 03:08:41 435.225
JUGNU 23 Oct 03:03:53 03:06:09 12° 163° (SSE) 03:08:25 437.505
RS-15 23 Oct 03:22:33 03:29:06 15° 332° (NNW) 03:35:38 29.354- 29.394
MOZHAYETS 4 23 Oct 03:23:02 03:27:32 51° 260° (W) 03:32:04
CUBESAT XI-V 23 Oct 03:42:27 03:46:53 47° 74° (ENE) 03:51:19 437.345
ITAMSAT 1 23 Oct 04:21:37 04:26:50 69° 285° (WNW) 04:32:01 435.822/435.867
ITUPSAT 1 23 Oct 04:24:07 04:26:29 14° 266° (W) 04:28:51 437.325
KKS-1 23 Oct 04:27:53 04:32:02 40° 73° (ENE) 04:36:12 437.445
AO-7 23 Oct 04:49:50 04:57:45 51° 293° (WNW) 05:05:42 .
JUGNU 23 Oct 04:50:08 04:54:32 22° 172° (S) 04:58:55 437.505
STARS 23 Oct 04:52:07 04:55:52 29° 71° (ENE) 04:59:39 437.465
CUBESAT XI-V 23 Oct 05:22:31 05:24:25 12° 267° (W) 05:26:20 437.345
DOVE 4 23 Oct 05:29:43 05:34:52 80° 102° (ESE) 05:40:09 437.250
SO-50 23 Oct 05:36:14 05:40:41 89° 285° (WNW) 05:45:12 436.795
XW-2F 23 Oct 05:38:17 05:40:19 14° 95° (E) 05:42:22 145.980 - 146.000
O/OREOS (USA 219) 23 Oct 05:41:03 05:45:25 42° 67° (ENE) 05:49:45 437.305
NUDT-PHONESAT 23 Oct 05:41:12 05:41:46 10° 93° (E) 05:42:20 437.300
RS-15 23 Oct 05:47:59 05:49:52 10° 12° (NNE) 05:51:43 29.354- 29.394
LilacSat-2 23 Oct 05:49:23 05:52:29 24° 97° (E) 05:55:34 437.200
STRAND 1 23 Oct 05:51:47 05:53:36 12° 64° (ENE) 05:55:27 437.568
XW-2D 23 Oct 05:52:18 05:55:26 25° 97° (E) 05:58:32 145.860 - 145.880
XW-2B 23 Oct 06:05:34 06:09:03 36° 98° (E) 06:12:30 145.730 - 145.750
KKS-1 23 Oct 06:06:30 06:08:42 13° 266° (W) 06:10:53 437.445
PCSat 23 Oct 06:11:52 06:16:00 23° 106° (ESE) 06:20:09 145.827
XW-2C 23 Oct 06:28:47 06:32:32 85° 98° (E) 06:36:16 145.795 - 145.815
STARS 23 Oct 06:29:02 06:32:09 19° 264° (W) 06:35:18 437.465
JUGNU 23 Oct 06:38:16 06:42:59 25° 182° (S) 06:47:40 437.505
CUBEBUG 2 23 Oct 06:52:52 06:55:32 15° 93° (E) 06:58:10 437.445
CUTE-I 23 Oct 06:53:12 06:58:36 82° 284° (WNW) 07:03:58 437.470
ISS 23 Oct 06:53:43 06:54:41 11° 125° (SE) 06:55:38 437.550
CUTE 1.7 + AOD 2 23 Oct 06:53:57 06:57:35 28° 97° (E) 07:01:13 437.475
SEEDS 23 Oct 06:55:30 06:58:14 17° 95° (E) 07:00:57 437.485
KAITUO 1B 23 Oct 07:03:29 07:06:59 42° 285° (WNW) 07:10:29 145.475/437.950
HO-68 23 Oct 07:06:03 07:12:57 47° 100° (E) 07:19:46 435.675
XW-2F 23 Oct 07:11:17 07:14:24 26° 287° (WNW) 07:17:30 145.980 - 146.000
DOVE 4 23 Oct 07:11:23 07:11:52 10° 295° (WNW) 07:12:21 437.250
NUDT-PHONESAT 23 Oct 07:12:23 07:15:41 33° 286° (WNW) 07:18:58 437.300
SRMSAT 23 Oct 07:19:34 07:23:43 20° 169° (S) 07:27:52 437.500
O/OREOS (USA 219) 23 Oct 07:22:10 07:24:21 13° 261° (W) 07:26:32 437.305
UWE-3 23 Oct 07:23:39 07:26:46 19° 94° (E) 07:29:49 435.000/436.395/437.385
LilacSat-2 23 Oct 07:24:10 07:26:31 16° 289° (WNW) 07:28:50 437.200
STRAND 1 23 Oct 07:27:04 07:32:08 66° 258° (WSW) 07:37:16 437.568
XW-2D 23 Oct 07:27:08 07:29:21 15° 290° (WNW) 07:31:32 145.860 - 145.880
FO-29 23 Oct 07:39:32 07:43:29 22° 66° (ENE) 07:47:37 435.910
XW-2B 23 Oct 07:41:58 07:42:49 11° 291° (WNW) 07:43:39 145.730 - 145.750
nSIGHT-1 23 Oct 07:46:21 07:49:29 64° 134° (SE) 07:52:39 .
PCSat 23 Oct 07:54:06 07:59:05 38° 300° (WNW) 08:04:08 145.827
XW-2A 23 Oct 07:54:43 07:57:59 52° 100° (E) 08:01:12 145.665 - 145.685
RS-15 23 Oct 07:57:50 08:08:06 32° 46° (NE) 08:17:51 29.354- 29.394
AO-73 23 Oct 08:05:22 08:08:56 25° 96° (E) 08:12:24 145.935
JUGNU 23 Oct 08:27:25 08:31:23 19° 192° (SSW) 08:35:21 437.505
ISS 23 Oct 08:27:41 08:30:48 45° 318° (NW) 08:33:57 437.550
CUBEBUG 2 23 Oct 08:28:04 08:32:14 36° 287° (WNW) 08:36:16 437.445
ZACube-1 23 Oct 08:28:57 08:33:12 60° 100° (E) 08:37:20 437.345
SEEDS 23 Oct 08:30:17 08:33:52 28° 287° (WNW) 08:37:28 437.485
CUTE 1.7 + AOD 2 23 Oct 08:30:21 08:33:09 18° 290° (WNW) 08:35:59 437.475
NO-84 23 Oct 08:36:57 08:39:04 14° 35° (NE) 08:41:06 435.350 FM
AAUSAT CUBESAT 2 23 Oct 08:43:41 08:47:40 48° 285° (WNW) 08:51:39 437.432
YUBILEINY 23 Oct 08:46:50 08:55:25 69° 92° (E) 09:04:02 435.215
HO-68 23 Oct 08:54:24 09:00:17 28° 295° (WNW) 09:06:10 435.675
UWE-3 23 Oct 08:59:25 09:03:11 28° 288° (WNW) 09:06:51 435.000/436.395/437.385
Oscar 11 23 Oct 08:59:39 09:03:58 83° 102° (ESE) 09:08:15 .
SRMSAT 23 Oct 09:07:34 09:12:19 25° 179° (S) 09:17:03 437.500
UNISAT 6 23 Oct 09:08:48 09:13:08 41° 73° (ENE) 09:17:31 437.425
PRISM 23 Oct 09:14:06 09:16:38 16° 69° (ENE) 09:19:11 437.425
TIGRISAT 23 Oct 09:22:26 09:26:56 53° 75° (ENE) 09:31:31 435.000
FO-29 23 Oct 09:23:37 09:28:18 34° 263° (W) 09:33:17 435.910
nSIGHT-1 23 Oct 09:24:49 09:26:03 12° 328° (NNW) 09:27:16 .
EO-88 23 Oct 09:35:37 09:38:04 17° 95° (E) 09:40:29 145.990 - 145.960
DELFI C3 23 Oct 09:40:23 09:44:13 46° 100° (E) 09:48:02 145.870
AO-73 23 Oct 09:41:52 09:44:57 20° 290° (WNW) 09:47:59 145.935
Max Valier Satellite 23 Oct 09:52:19 09:55:50 44° 99° (E) 09:59:18 145.860
RS-15 23 Oct 10:09:49 10:21:24 69° 248° (WSW) 10:32:24 29.354- 29.394
AIST 2D 23 Oct 10:12:30 10:14:38 16° 71° (ENE) 10:16:47 435.315
NO-84 23 Oct 10:13:10 10:16:46 53° 233° (SW) 10:20:04 435.350 FM
YUBILEINY 23 Oct 10:46:47 10:52:49 21° 289° (WNW) 10:58:56 435.215
UNISAT 6 23 Oct 10:47:16 10:49:56 15° 266° (W) 10:52:39 437.425
PRISM 23 Oct 10:48:08 10:51:38 28° 262° (W) 10:55:10 437.425
BEESAT 2 23 Oct 10:56:11 10:59:35 27° 111° (ESE) 11:03:01 435.950
SRMSAT 23 Oct 10:56:35 11:00:54 21° 189° (S) 11:05:14 437.500
AO-85 23 Oct 10:59:48 11:02:17 16° 110° (ESE) 11:04:47 145.980
EO-79 23 Oct 11:00:09 11:03:40 25° 71° (ENE) 11:07:11 145.935-145.965
TIGRISAT 23 Oct 11:02:22 11:03:51 11° 268° (W) 11:05:21 435.000
BEESAT 3 23 Oct 11:04:09 11:08:02 53° 300° (WNW) 11:11:59 437.485
POLYITAN 1 23 Oct 11:05:39 11:09:22 30° 72° (ENE) 11:13:06 437.675
EO-88 23 Oct 11:08:52 11:11:35 20° 288° (WNW) 11:14:18 145.990 - 145.960
NANOSAT C BR1 23 Oct 11:25:25 11:29:27 45° 74° (ENE) 11:33:32 145.865
QB50P2 23 Oct 11:25:39 11:29:51 60° 76° (ENE) 11:34:05 145.880/145.840
ESTCUBE 1 23 Oct 11:32:17 11:36:35 44° 100° (E) 11:40:52 437.505/2401.250
DUCHIFAT 1 23 Oct 11:34:05 11:38:11 50° 75° (ENE) 11:42:18 145.980
AIST 2D 23 Oct 11:44:55 11:47:36 21° 264° (W) 11:50:18 435.315
LO-87 23 Oct 11:46:25 11:50:01 64° 283° (WNW) 11:53:34 145.935 - 145.965
BEESAT 2 23 Oct 12:34:21 12:37:16 19° 306° (NW) 12:40:14 435.950
EO-79 23 Oct 12:36:10 12:39:19 20° 264° (W) 12:42:30 145.935-145.965
Gurwin Techsat 1B 23 Oct 12:36:25 12:40:27 23° 68° (ENE) 12:44:30 435.225
AO-85 23 Oct 12:39:04 12:42:24 27° 304° (WNW) 12:45:46 145.980
POLYITAN 1 23 Oct 12:42:16 12:45:07 17° 265° (W) 12:47:59 437.675
VELOX 1 23 Oct 12:42:53 12:47:07 42° 99° (E) 12:51:20 145.980
SRMSAT 23 Oct 12:47:39 12:49:26 11° 198° (SSW) 12:51:13 437.500
BUGSAT 1 23 Oct 13:03:05 13:07:10 54° 260° (W) 13:11:20 437.445
NANOSAT C BR1 23 Oct 13:04:12 13:05:20 11° 267° (W) 13:06:27 145.865
SPROUT 23 Oct 13:06:58 13:11:11 58° 285° (WNW) 13:15:22 437.525
ESTCUBE 1 23 Oct 13:10:48 13:12:56 13° 293° (WNW) 13:15:04 437.505/2401.250
50 SAT 23 Oct 13:11:02 13:13:28 19° 97° (E) 13:15:53 437.505
Oscar 19 23 Oct 13:14:53 13:20:03 83° 77° (ENE) 13:25:14 437.125/150
M-CUBED/EXP-1 PRIME 23 Oct 13:33:11 13:36:30 50° 254° (WSW) 13:39:42 437.505
DX 1 23 Oct 13:37:52 13:42:00 40° 99° (E) 13:46:06 434.975-435.025
AO-7 23 Oct 13:52:15 13:58:52 28° 61° (ENE) 14:05:28 .
UKube-1 23 Oct 13:54:25 13:58:27 37° 99° (E) 14:02:27 .
ITAMSAT 1 23 Oct 13:59:43 14:00:58 11° 63° (ENE) 14:02:12 435.822/435.867
SO-50 23 Oct 14:12:30 14:16:09 22° 54° (NE) 14:19:49 436.795
Gurwin Techsat 1B 23 Oct 14:15:17 14:20:07 36° 262° (W) 14:24:59 435.225
VELOX 1 23 Oct 14:20:53 14:23:08 14° 293° (WNW) 14:25:23 145.980
50 SAT 23 Oct 14:43:39 14:45:32 15° 289° (WNW) 14:47:26 437.505
ITUPSAT 1 23 Oct 14:50:14 14:53:29 18° 95° (E) 14:56:42 437.325
ISS 23 Oct 14:59:41 15:02:06 19° 36° (NE) 15:04:31 437.550
BEESAT 23 Oct 15:02:39 15:06:37 26° 97° (E) 15:10:32 436.000
DX 1 23 Oct 15:15:27 15:17:46 14° 293° (WNW) 15:20:06 434.975-435.025
MOZHAYETS 4 23 Oct 15:22:46 15:27:13 52° 100° (E) 15:31:38
UKube-1 23 Oct 15:31:42 15:34:06 15° 292° (WNW) 15:36:28 .
ITAMSAT 1 23 Oct 15:34:33 15:39:43 74° 259° (WSW) 15:44:56 435.822/435.867
AO-7 23 Oct 15:42:58 15:51:04 57° 257° (WSW) 15:59:12 .
CUBESAT XI-V 23 Oct 15:44:45 15:47:47 17° 95° (E) 15:50:48 437.345
SO-50 23 Oct 15:52:28 15:56:37 32° 247° (WSW) 16:00:46 436.795
nSIGHT-1 23 Oct 15:53:09 15:56:22 89° 56° (ENE) 15:59:33 .
KKS-1 23 Oct 16:25:45 16:27:15 11° 93° (E) 16:28:45 437.445
ITUPSAT 1 23 Oct 16:26:59 16:31:20 36° 288° (WNW) 16:35:40 437.325
DOVE 4 23 Oct 16:30:53 16:34:47 40° 74° (ENE) 16:38:51 437.250
ISS 23 Oct 16:35:40 16:38:36 31° 230° (SW) 16:41:32 437.550
CUTE-I 23 Oct 16:35:55 16:36:05 10° 63° (ENE) 16:36:15 437.470
BEESAT 23 Oct 16:40:21 16:44:13 25° 290° (WNW) 16:48:06 436.000
PCSat 23 Oct 16:46:18 16:51:40 61° 63° (ENE) 16:57:00 145.827
MOZHAYETS 4 23 Oct 17:02:11 17:03:51 12° 294° (WNW) 17:05:30
XW-2C 23 Oct 17:05:53 17:08:37 19° 72° (ENE) 17:11:20 145.795 - 145.815
CUBESAT XI-V 23 Oct 17:21:02 17:25:10 34° 287° (WNW) 17:29:20 437.345
HO-68 23 Oct 17:31:00 17:36:04 21° 62° (ENE) 17:41:09 435.675
KAITUO 1B 23 Oct 17:38:14 17:41:39 35° 75° (ENE) 17:45:04 145.475/437.950
CUTE 1.7 + AOD 2 23 Oct 17:43:57 17:45:17 11° 68° (ENE) 17:46:38 437.475
NUDT-PHONESAT 23 Oct 17:45:55 17:49:28 44° 75° (ENE) 17:53:00 437.300
XW-2F 23 Oct 17:46:13 17:49:57 65° 77° (ENE) 17:53:41 145.980 - 146.000
LilacSat-2 23 Oct 17:59:28 18:03:16 68° 259° (W) 18:07:04 437.200
KKS-1 23 Oct 17:59:39 18:03:58 48° 286° (WNW) 18:08:17 437.445
XW-2D 23 Oct 18:01:39 18:05:26 66° 260° (W) 18:09:11 145.860 - 145.880
CUTE-I 23 Oct 18:10:02 18:15:21 82° 258° (WSW) 18:20:42 437.470
DOVE 4 23 Oct 18:11:10 18:12:41 12° 268° (W) 18:14:15 437.250
XW-2B 23 Oct 18:15:25 18:19:02 43° 261° (W) 18:22:40 145.730 - 145.750
STARS 23 Oct 18:21:32 18:25:58 73° 284° (WNW) 18:30:21 437.465
PCSat 23 Oct 18:31:56 18:34:27 13° 257° (WSW) 18:36:58 145.827
XW-2C 23 Oct 18:39:45 18:42:37 20° 264° (W) 18:45:30 145.795 - 145.815
AO-73 23 Oct 18:57:18 18:59:17 13° 67° (ENE) 19:01:17 145.935
YUBILEINY 23 Oct 19:03:59 19:11:05 26° 73° (ENE) 19:18:07 435.215
KAITUO 1B 23 Oct 19:15:19 19:15:42 10° 267° (W) 19:16:06 145.475/437.950
SEEDS 23 Oct 19:16:02 19:20:12 83° 257° (WSW) 19:24:23 437.485
HO-68 23 Oct 19:16:05 19:23:09 62° 257° (WSW) 19:30:16 435.675
CUTE 1.7 + AOD 2 23 Oct 19:16:36 19:20:39 46° 261° (W) 19:24:43 437.475
ZACube-1 23 Oct 19:19:40 19:23:30 27° 72° (ENE) 19:27:19 437.345
CUBEBUG 2 23 Oct 19:19:52 19:24:32 83° 258° (WSW) 19:29:19 437.445
BEESAT 3 23 Oct 19:26:01 19:28:46 18° 54° (NE) 19:31:28 437.485
AAUSAT CUBESAT 2 23 Oct 19:28:22 19:32:21 53° 76° (ENE) 19:36:21 437.432
STRAND 1 23 Oct 19:42:26 19:47:34 64° 101° (ESE) 19:52:39 437.568
O/OREOS (USA 219) 23 Oct 19:48:02 19:52:31 63° 290° (WNW) 19:57:05 437.305
Oscar 11 23 Oct 19:49:34 19:53:26 33° 73° (ENE) 19:57:19 .
UWE-3 23 Oct 19:49:56 19:54:32 68° 259° (W) 19:59:13 435.000/436.395/437.385
XW-2A 23 Oct 19:53:12 19:56:24 39° 261° (W) 19:59:37 145.665 - 145.685
DELFI C3 23 Oct 20:22:25 20:24:21 13° 69° (ENE) 20:26:16 145.870
Max Valier Satellite 23 Oct 20:29:09 20:29:35 10° 69° (ENE) 20:30:01 145.860
AO-73 23 Oct 20:30:36 20:35:01 49° 261° (W) 20:39:27 145.935
FO-29 23 Oct 20:35:20 20:42:12 41° 99° (E) 20:49:27 435.910
